Torna al catalogo

STARLINK-4517

AttivoComunicazioniVLEO
NORAD 53390·PAYLOAD·🇺🇸 United States

Lanciato Aug 10, 2022 da Cape Canaveral Space Force Station

Loading…

Prossimi Passaggi (prossime 24 ore)

TLE

AggiornatoSource: CelesTrak SupGP

Epoca: Sep 14, 2026, 21:21 UTC

1 53390C 22097C   26257.89006944 -.00031476  00000+0 -90078-3 0  2578
2 53390  53.1584 348.3562 0001096  80.3006 312.8828 15.35406722    10

Traccia STARLINK-4517 in tempo reale con AllMySat

Download on the App Store